Regional Weather Roundup
Issued by NWS

Home | Current Version | Previous Version | Graphics & Text | Print | Product List | Glossary On
Versions: 1 2 3 4 5 6 7 8 9 10 11 12 13 14 15 16 17 18 19 20 21 22 23 24 25 26 27 28 29 30 31 32 33 34 35 36 37 38 39 40 41 42 43 44 45 46 47 48 49 50
000
ASUS45 KABQ 250010
RWRNM
WEATHER ROUNDUP FOR NEW MEXICO
NATIONAL WEATHER SERVICE ALBUQUERQUE NM
600 PM MDT THU APR 24 2014

NOTE: "FAIR" MEANS FEW OR NO CLOUDS BELOW 12,000 FEET AGL WITH NO
       SIGNIFICANT WEATHER OR OBSTRUCTIONS TO VISION.

      THIS PRODUCT IS RELEASED AS TWO VERSIONS.  ONE VERSION NEAR
      THE TOP OF THE HOUR CONTAINING PRELIMINARY DATA FROM ALBUQUERQUE
      AND OTHER STATIONS.  A FINAL VERSION WITH ADDITIONAL DATA IS
      ISSUED ABOUT 10 MINUTES AFTER THE HOUR.

NMZ501-503-504-510>518-250100-
NORTHWEST PLATEAU/NORTHCENTRAL MOUNTAINS

CITY           SKY/WX    TMP DP  RH WIND       PRES   REMARKS
FARMINGTON     SUNNY     66   0   7 W14       30.02F
6HR MIN TEMP:  54; 6HR MAX TEMP:  67;

LOS ALAMOS     MOSUNNY   61  -8   6 W9G17     30.09S
SANTA FE       PTSUNNY   66 -18   3 NW14      30.03S
6HR MIN TEMP:  56; 6HR MAX TEMP:  69;

TAOS           MOSUNNY   63   7  11 SW18G25   30.07S
ANGEL FIRE     FAIR      55   2  12 W10G22    30.09R

$$
NMZ402-403-502-505>509-250100-
WESTCENTRAL MOUNTAINS/SOUTHWEST MOUNTAINS

CITY           SKY/WX    TMP DP  RH WIND       PRES   REMARKS
GALLUP         SUNNY     68   0   6 SW9       30.05S
6HR MIN TEMP:  56; 6HR MAX TEMP:  72;

GRANTS         MOSUNNY   68  -5   5 W6        30.05S
SILVER CITY    SUNNY     73  12   9 W17G24    30.05F

$$
NMZ407-409-411-412-250100-
SOUTHERN DESERTS

CITY           SKY/WX    TMP DP  RH WIND       PRES   REMARKS
LORDSBURG      FAIR      79  16   9 NW15      29.97F
DEMING         SUNNY     79  14   8 NW8       29.96F
6HR MIN TEMP:  72; 6HR MAX TEMP:  81;

LAS CRUCES     SUNNY     79   9   7 W13G21    30.00S
HOLLOMAN AFB   PTSUNNY   77   5   6 S3        29.96F
ALAMOGORDO     PTSUNNY   77   7   6 S6        29.99S
T OR C         SUNNY     78   7   6 S18G25    29.95F
6HR MIN TEMP:  68; 6HR MAX TEMP:  78;


$$
NMZ519>523-250100-
CENTRAL VALLEYS/CENTRAL HIGHLANDS

CITY           SKY/WX    TMP DP  RH WIND       PRES   REMARKS
ALBUQUERQUE    MOSUNNY   70   7   8 SE5       30.00F
6HR MIN TEMP:  61; 6HR MAX TEMP:  70;

DOUBLE EAGLE   PTSUNNY   70   9   9 VRB7      30.02F
MORIARTY ARPT  FAIR      67   9  10 W12       30.05F
6HR MIN TEMP:  60; 6HR MAX TEMP:  68;

CLINES CORNERS MOSUNNY   63   0   8 W20G30    30.06S
6HR MIN TEMP:  54; 6HR MAX TEMP:  64;

BELEN          FAIR      70  14  11 CALM      30.00F
6HR MIN TEMP:  61; 6HR MAX TEMP:  71;

SOCORRO        FAIR      75  12   9 S16G22    29.98S
6HR MIN TEMP:  62; 6HR MAX TEMP:  75;


$$
NMZ524>526-539-540-250100-
SOUTHCENTRAL MOUNTAINS

CITY           SKY/WX    TMP DP  RH WIND       PRES   REMARKS
RUIDOSO        PTSUNNY   64  -2   7 NW6       30.11F

$$
NMZ527>531-250100-
NORTHEAST HIGHLANDS/NORTHEAST PLAINS

CITY           SKY/WX    TMP DP  RH WIND       PRES   REMARKS
LAS VEGAS      PTSUNNY   64  -4   6 SW24      30.01F
6HR MIN TEMP:  56; 6HR MAX TEMP:  67;

RATON          SUNNY     70   4   7 W14G25    29.91F
6HR MIN TEMP:  56; 6HR MAX TEMP:  72;

CLAYTON        MOSUNNY   67  15  13 S20       29.94F
6HR MIN TEMP:  59; 6HR MAX TEMP:  69;


$$
NMZ532>537-250100-
EASTCENTRAL PLAINS

CITY           SKY/WX    TMP DP  RH WIND       PRES   REMARKS
TUCUMCARI      PTSUNNY   74  21  13 S15G23    29.90F
6HR MIN TEMP:  64; 6HR MAX TEMP:  76;

CANNON AFB     CLOUDY    69  26  20 S8        29.98F
6HR MIN TEMP:  63; 6HR MAX TEMP:  71;

CLOVIS AIRPORT CLOUDY    70  25  18 SW10      30.01F

$$
NMZ028-029-538-250100-
SOUTHEAST PLAINS

CITY           SKY/WX    TMP DP  RH WIND       PRES   REMARKS
ROSWELL        MOSUNNY   77  23  13 SE14      29.95S
6HR MIN TEMP:  68; 6HR MAX TEMP:  78;

ARTESIA        MOSUNNY   75  23  14 E5        29.95F
CARLSBAD       MOSUNNY   79  20  11 E12       29.93F
6HR MIN TEMP:  73; 6HR MAX TEMP:  80;

HOBBS          MOSUNNY   75  21  13 NE5       29.99S


$$



USA.gov is the U.S. government's official web portal to all federal, state and local government web resources and services.